Terminal Aerodrome Forecast
Issued by NWS

Home | Current Version | Previous Version | Graphics & Text | Print | Product List | Glossary On
Versions: 1 2 3 4 5 6 7 8 9 10 11 12 13 14 15 16 17 18 19 20 21 22 23
000
FTUS43 KDLH 302300 RRA
TAFHYR
TAF
KHYR 302347Z 3100/3124 19006KT P6SM BKN050 OVC100
     FM310400 VRB04KT P6SM SCT040 OVC070
     FM311000 30006KT P6SM SCT022 BKN040
     FM311500 33006G13KT P6SM BKN025
     FM312100 01009G17KT P6SM SCT018 BKN028
      TEMPO 3121/3124 4SM -SHSN BKN022=

USA.gov is the U.S. government's official web portal to all federal, state and local government web resources and services.